Location: ???????????
(38.2661°N, 23.2350°E)
Time: 01:21:01
(UTC+00:00)

SJ-6B - Pass Details

Date: 25 September 2023
Orbit: 496 x 558 km, 97.5° (Epoch: 08 December)

Event Time Altitude Azimuth Distance (km) Brightness Sun altitude
Exits shadow 16:21:54 - 100° (E) 2,641 5.6 -1.2°
Enters shadow 17:34:34 -44° 167° (SSE) 9,640 9.1 -15.4°
Maximum altitude 17:59:03 87° 77° (ENE) 567 2.7 -20.1°
